GFSMW_925_temp_021.txt.gz
Temp
28 26 25 25 24 23 23 22 22 22 21 21 22 22 22 22 22 22 24 24 25 25 24 23 24 23 22 22 22 21 21 22 21 22 23 22 22 22 22 22 22 22 22
28 27 26 25 25 24 23 22 22 22 21 22 22 22 22 23 23 23 23 24 25 25 24 24 23 23 22 22 22 22 22 22 21 23 23 25 24 23 22 22 22 21 22
28 28 26 26 25 25 23 23 22 22 22 22 22 21 22 22 22 23 23 24 25 25 25 25 23 23 22 22 22 22 22 23 21 22 23 24 25 24 22 21 21 21 22
29 29 27 26 26 25 24 23 23 22 22 22 22 22 23 24 24 24 23 23 24 25 25 24 24 23 22 22 21 22 22 22 23 21 21 21 22 25 24 22 22 21 21
30 29 28 27 26 26 25 24 23 22 22 22 22 22 23 24 24 24 23 23 24 25 25 24 24 23 23 22 21 22 22 21 22 23 21 21 21 21 24 25 23 22 22
31 30 28 27 27 26 25 24 23 22 22 22 22 22 23 24 24 23 23 23 23 23 24 24 24 24 23 23 22 22 22 22 22 22 22 23 23 23 23 24 23 24 23
31 30 29 28 27 27 26 25 24 23 22 22 22 22 23 23 23 23 23 24 24 23 23 24 24 23 24 23 22 23 22 22 21 22 22 22 22 22 22 23 23 23 22
31 31 31 29 28 27 26 25 25 23 23 22 22 22 22 23 23 23 24 24 24 24 23 24 24 24 24 24 23 22 22 22 21 22 21 21 21 21 21 23 23 23 23
32 31 31 30 28 28 27 26 25 24 23 23 23 22 22 22 23 24 23 24 24 24 23 24 24 24 24 24 23 22 22 22 22 21 21 21 21 21 21 21 22 23 24
33 33 32 31 30 28 28 26 25 25 24 23 23 23 22 22 23 23 23 24 24 24 23 23 23 24 24 24 23 22 22 22 21 21 20 21 21 20 20 21 21 21 23
34 34 33 31 30 29 28 27 26 25 24 23 23 23 23 22 22 23 23 23 24 24 23 24 24 23 23 24 23 23 21 22 21 22 20 20 20 21 21 20 20 21 21
33 33 33 32 31 30 29 28 27 26 25 24 24 23 23 23 23 23 23 23 23 24 24 24 24 23 22 23 23 23 22 22 21 21 20 20 20 19 20 20 20 21 20
31 32 33 33 32 31 30 29 28 27 26 25 24 24 23 23 23 23 23 23 23 23 23 23 23 23 22 23 23 23 22 22 22 21 21 22 20 19 20 20 20 20 20
32 31 31 31 32 31 30 29 29 28 27 26 25 24 23 23 23 23 23 23 23 22 23 23 23 23 22 22 24 23 22 21 22 22 21 20 20 20 20 19 19 19 19
32 31 31 29 29 30 29 28 29 28 27 26 25 25 24 24 23 23 23 23 22 22 23 23 23 23 23 23 22 22 22 21 21 21 20 20 22 22 21 20 19 19 19
32 32 32 30 29 29 28 28 28 28 27 26 25 25 24 24 23 23 23 22 22 22 22 22 23 23 23 23 24 25 22 21 21 21 20 20 22 22 21 21 20 20 19
34 33 32 31 30 29 28 28 27 27 26 26 25 25 24 23 23 23 22 22 22 22 22 22 22 23 23 23 25 25 23 22 21 21 20 20 20 22 21 20 20 20 20
33 32 33 32 30 30 31 29 28 26 25 25 25 25 24 24 23 23 23 23 23 22 22 22 22 23 23 23 26 25 24 22 21 21 20 20 20 20 20 19 19 18 19
32 31 31 31 29 29 29 28 28 26 26 25 25 25 24 24 23 23 23 23 23 23 22 22 22 22 23 23 24 25 22 22 21 20 20 20 20 21 21 19 19 19 19
31 30 29 29 28 28 29 28 28 27 26 26 25 25 24 24 24 23 23 23 23 23 23 22 22 22 23 22 23 23 22 21 20 20 19 19 21 20 20 19 19 19 19
28 28 27 28 27 26 28 28 28 27 27 26 26 25 24 24 24 23 23 23 23 23 23 23 22 22 22 23 22 23 21 22 20 20 19 19 20 20 20 19 19 20 19
25 26 26 25 25 25 26 27 26 26 26 26 25 24 24 24 24 23 23 23 23 23 23 22 22 22 22 21 22 21 22 21 20 20 19 20 21 19 19 19 19 19 19
24 24 24 23 23 24 25 25 24 25 25 25 25 25 24 24 24 23 23 23 23 23 23 22 22 21 21 21 20 21 22 20 19 19 19 21 20 19 19 19 19 19 18
23 23 24 24 23 22 22 22 22 23 24 25 25 25 24 24 24 24 24 24 24 23 24 23 22 22 21 20 20 20 19 19 18 18 17 18 18 18 18 18 18 17 18
21 21 22 22 21 21 20 20 20 21 23 23 24 24 25 24 25 24 25 24 25 24 24 24 23 22 19 18 19 19 17 17 18 17 17 17 16 15 16 16 16 16 16
19 20 20 20 19 19 19 19 18 19 20 21 23 24 25 26 25 26 24 24 25 24 24 24 22 21 20 19 19 17 18 18 18 18 17 16 16 16 16 16 16 15 15

GFSMW_925_temp_024.txt.gz
Temp
32 30 29 28 28 27 26 25 24 24 24 24 24 25 25 25 25 25 25 24 24 24 23 25 24 24 24 23 23 23 23 25 24 25 26 25 25 25 25 26 25 24 25
33 31 30 29 28 27 26 25 24 24 23 24 25 26 26 26 26 26 25 24 24 24 24 24 24 24 24 23 23 23 25 25 25 26 27 28 26 26 26 25 25 24 25
33 32 31 30 29 28 27 26 24 24 23 25 24 24 25 25 26 26 25 25 24 24 24 25 24 23 24 23 23 23 24 26 24 24 26 27 28 27 25 24 25 24 25
34 33 32 30 30 29 27 26 25 24 24 24 25 25 26 26 27 26 26 26 24 24 24 24 24 24 25 25 23 24 24 23 26 24 24 24 24 28 27 25 25 24 24
35 34 33 31 30 29 28 27 25 24 25 24 25 25 25 27 27 27 27 25 25 24 25 24 24 24 24 24 24 23 22 24 25 26 25 24 25 25 27 27 26 24 25
35 35 33 32 31 30 29 27 26 24 24 24 23 25 25 26 27 27 27 26 26 26 25 25 24 24 24 24 24 23 22 23 24 25 25 26 26 27 26 27 26 27 26
35 35 34 33 31 30 29 28 26 25 24 24 24 24 24 25 26 26 26 27 27 27 26 24 24 24 24 24 24 23 23 22 23 22 25 25 25 26 26 26 27 27 26
36 36 35 33 32 31 29 28 27 25 25 25 24 24 24 25 25 26 27 27 28 27 27 25 24 24 24 24 24 23 23 23 23 22 23 25 25 25 25 26 26 27 26
37 36 36 34 32 31 30 29 28 26 26 25 25 24 24 24 26 26 26 27 27 28 26 25 24 24 24 24 24 24 23 23 22 23 22 23 25 25 25 25 25 26 27
37 37 36 36 34 32 31 29 28 27 26 26 25 25 25 24 25 26 25 26 27 26 27 25 25 25 24 24 24 24 24 23 23 24 23 23 25 24 24 25 25 25 26
39 38 38 36 35 34 32 30 29 28 27 27 26 26 26 25 25 25 25 25 26 26 25 25 25 25 25 24 24 24 25 23 23 23 23 22 23 25 25 24 24 25 25
40 39 39 38 36 34 33 32 31 29 28 28 26 26 26 26 26 25 25 25 25 25 25 25 25 25 25 25 24 24 25 24 23 23 23 22 22 22 23 24 24 24 24
37 38 39 38 37 35 34 33 32 31 30 28 28 27 26 26 26 25 25 25 25 25 26 25 25 25 25 25 24 24 24 25 24 24 23 23 22 22 24 23 24 23 23
37 37 37 38 37 36 34 33 33 32 31 30 29 28 27 26 26 26 25 25 25 24 25 25 25 25 25 25 25 24 24 25 24 24 24 23 22 22 21 22 22 23 23
37 36 36 36 35 35 34 32 32 32 32 31 30 28 27 26 26 26 25 25 25 24 25 25 25 25 26 26 25 25 25 25 25 24 24 23 22 22 22 22 22 22 22
37 37 37 36 35 34 33 33 32 32 31 31 30 29 27 26 26 26 25 25 25 25 24 25 25 25 26 27 26 25 25 25 24 24 24 23 22 21 21 22 23 22 22
36 37 38 37 37 36 34 33 32 31 31 29 29 28 27 26 26 26 25 25 25 25 24 24 25 25 25 26 26 25 25 25 24 24 24 24 23 21 20 20 22 21 21
37 37 38 39 38 37 37 35 32 30 30 29 28 28 27 26 26 25 25 25 25 25 25 24 25 25 25 25 26 25 24 25 25 25 24 24 24 22 21 21 19 20 20
37 37 37 37 36 36 36 34 32 31 29 29 28 27 27 26 26 25 25 25 25 25 25 24 24 24 25 25 25 25 23 24 25 25 24 24 23 23 21 21 21 20 20
37 36 36 35 34 33 34 33 33 31 29 29 28 27 27 27 26 26 25 25 25 25 25 25 25 24 25 25 24 24 25 25 25 25 24 23 23 22 21 20 21 21 21
34 34 33 33 33 32 32 33 32 32 30 29 29 28 27 26 26 26 25 25 25 26 25 26 25 25 24 25 24 24 23 26 26 27 25 24 22 21 21 20 20 20 21
33 32 31 32 31 30 30 31 31 31 30 29 29 28 27 27 27 26 25 25 25 25 25 25 25 26 25 24 25 24 23 25 27 27 27 23 22 20 20 20 19 19 20
31 31 32 30 29 28 30 30 29 29 29 28 28 28 27 26 27 26 25 26 25 26 26 27 26 27 27 25 24 24 23 23 24 28 25 23 22 20 18 19 19 19 19
28 28 28 28 27 27 28 27 26 27 27 27 27 27 27 26 26 27 27 27 28 26 27 28 28 28 27 27 26 22 22 22 23 24 22 20 19 18 18 18 17 18 18
26 26 27 26 25 24 24 24 24 25 27 27 27 27 27 27 27 26 28 28 28 29 28 28 28 27 27 26 23 20 18 19 19 19 18 17 16 16 16 16 17 17 18
23 22 22 22 23 23 23 22 22 23 24 26 27 29 29 30 29 29 28 27 27 26 27 27 27 28 26 26 23 20 20 19 17 17 16 16 17 17 16 16 16 17 17

GFSMW_925_temp_027.txt.gz
Temp
35 33 32 31 31 30 29 28 27 27 26 26 26 27 27 27 27 27 27 26 25 25 25 26 25 25 26 25 24 25 25 27 26 27 27 26 26 27 27 27 27 26 26
35 34 32 32 31 30 29 28 27 26 25 26 26 27 27 28 27 27 27 26 25 25 25 24 26 26 25 24 24 24 25 27 26 27 28 27 27 27 28 27 26 26 26
36 34 33 32 31 30 29 28 26 26 25 26 26 26 27 27 27 27 27 26 25 26 26 25 25 26 25 24 24 24 25 26 26 26 27 28 25 28 27 26 26 25 26
37 35 34 33 32 31 29 28 26 25 25 25 27 27 27 28 28 28 28 27 26 26 26 25 25 25 26 24 24 25 25 26 27 26 26 25 25 26 26 27 26 25 26
38 36 35 33 33 32 30 28 26 25 26 25 26 27 27 28 28 29 28 27 26 26 26 26 25 25 24 26 24 25 24 26 26 27 27 26 27 26 27 26 26 26 26
38 37 35 34 33 32 31 29 27 25 25 25 25 26 27 28 29 28 29 28 28 26 26 26 25 25 25 26 25 24 24 24 26 27 27 27 27 27 27 28 27 28 26
39 37 36 35 33 33 31 30 28 26 25 25 25 25 26 26 28 28 28 29 29 28 27 26 25 25 25 26 25 24 25 24 24 24 26 27 27 28 28 28 29 28 28
40 39 37 36 34 33 32 31 29 27 26 25 25 25 25 27 27 27 29 28 29 29 29 26 26 25 25 25 25 25 25 25 24 24 24 27 27 27 27 27 28 28 28
40 39 38 36 35 33 32 31 30 27 26 26 26 25 25 26 27 27 27 28 28 30 29 27 26 25 25 25 25 25 25 25 24 24 24 24 27 27 27 27 27 27 28
40 40 39 37 36 34 33 31 30 28 27 27 26 26 25 25 26 27 27 27 28 28 29 28 27 25 25 25 25 26 26 25 25 25 25 24 26 27 26 27 27 27 27
41 40 39 38 36 35 34 32 31 30 28 27 27 27 26 26 25 26 27 27 27 28 27 27 26 26 25 25 25 25 27 25 25 25 25 24 24 26 27 26 26 27 26
41 40 40 39 38 36 35 34 32 31 29 28 28 27 27 27 26 26 26 27 27 27 27 27 26 26 26 26 25 25 26 26 25 24 25 25 24 23 25 26 26 26 26
41 41 41 40 40 38 37 35 34 33 31 30 29 28 27 27 27 27 26 26 26 26 27 26 26 26 26 26 25 25 25 26 26 25 24 24 24 24 24 25 26 25 25
40 41 41 41 40 39 37 36 36 34 33 32 30 30 28 28 28 28 27 26 26 26 26 27 26 26 26 26 26 25 25 25 26 25 25 24 24 23 23 24 24 25 25
38 39 39 39 39 39 37 36 36 36 35 33 32 31 29 28 28 28 27 27 27 26 26 26 26 26 26 26 26 26 25 25 25 26 25 25 24 24 23 23 24 24 24
38 39 39 38 38 38 37 36 35 35 35 34 33 32 30 29 28 28 27 27 26 26 26 26 26 26 26 27 27 26 26 26 25 26 26 25 25 24 23 23 24 23 24
38 38 38 39 38 37 37 36 35 34 34 33 33 32 31 29 28 28 27 27 26 26 26 26 26 26 26 27 28 27 26 26 26 25 26 26 26 24 23 22 23 23 23
37 38 39 39 39 39 40 37 36 34 33 33 32 32 31 30 28 27 27 27 26 26 26 26 26 26 26 27 27 28 27 26 26 26 25 26 26 25 23 22 21 21 22
38 38 39 39 39 39 39 38 37 35 32 32 32 31 30 30 28 27 27 27 26 26 26 26 26 26 26 26 26 27 26 26 26 26 26 26 25 26 24 23 22 21 21
37 38 38 38 38 38 37 38 37 36 33 32 31 30 30 29 28 27 27 27 27 26 26 26 26 26 26 26 26 26 26 27 26 26 26 26 25 25 24 23 22 22 21
33 34 35 35 35 35 36 36 36 36 34 32 31 30 29 29 28 27 27 27 26 27 26 27 27 26 26 26 26 26 25 27 27 27 26 26 25 25 24 23 22 22 22
33 34 34 34 33 34 34 34 34 34 34 33 31 30 29 28 28 27 27 27 26 26 27 27 26 27 26 26 25 25 25 25 27 28 27 27 26 24 24 23 23 22 22
32 33 33 34 33 32 31 32 32 32 32 31 30 30 29 28 28 28 27 27 26 27 28 28 28 28 28 27 26 25 25 25 25 27 29 28 28 26 24 23 21 21 21
30 31 31 32 30 29 30 31 29 30 30 30 29 29 29 28 28 28 28 28 29 29 28 29 29 29 30 29 29 26 25 25 24 24 25 25 28 26 23 22 20 19 19
28 29 29 29 27 26 26 26 26 27 28 29 29 28 29 28 28 28 29 30 29 30 31 30 30 31 31 31 30 30 27 22 21 22 22 20 19 18 18 18 19 18 18
23 23 25 26 26 25 24 24 24 25 27 28 29 30 31 30 29 30 29 28 28 28 28 28 27 27 27 28 27 29 29 25 22 20 19 19 18 17 17 17 17 18 18

GFSMW_925_temp_030.txt.gz
Temp
35 33 33 32 31 30 28 28 28 27 25 25 25 26 26 27 27 27 28 26 25 25 24 24 25 25 25 25 25 25 25 26 26 27 27 26 27 27 27 27 26 25 24
35 34 33 33 32 30 28 27 27 27 26 26 25 26 27 27 27 27 27 26 26 25 24 24 25 25 25 24 24 24 25 26 26 26 26 24 26 27 27 27 26 26 26
36 34 33 33 32 30 29 27 27 27 26 26 26 26 27 27 27 27 27 27 26 25 25 24 25 25 25 25 24 24 25 25 26 26 25 23 24 26 26 26 26 26 26
36 35 34 33 32 31 29 27 27 26 25 26 26 26 27 27 28 27 27 27 26 25 25 25 25 25 25 24 25 25 25 25 26 26 26 26 25 23 24 26 26 26 25
37 35 34 33 33 31 30 28 27 26 25 25 26 26 26 27 28 28 28 27 26 26 26 25 25 25 25 25 25 25 25 25 26 26 27 26 26 26 25 24 25 25 26
38 36 35 33 33 32 30 29 26 26 26 25 26 26 26 27 28 28 28 27 26 26 26 26 25 25 25 24 25 25 25 25 25 26 27 27 26 27 26 24 25 25 26
39 37 34 34 33 32 31 29 26 25 25 25 25 25 26 27 27 28 28 28 27 26 26 26 26 25 25 25 25 24 24 25 25 25 26 27 27 28 27 27 26 26 26
40 38 35 34 33 33 31 30 27 26 25 25 25 25 25 26 27 27 28 28 28 28 28 27 26 25 25 25 25 25 25 24 24 24 25 26 27 27 27 27 27 25 26
41 38 37 35 33 33 31 30 28 26 25 25 25 25 25 26 26 27 28 28 29 29 29 28 26 26 25 25 25 25 25 25 24 24 24 25 26 27 27 27 27 27 24
41 39 38 36 34 33 32 31 29 27 26 26 25 25 25 25 26 27 27 28 28 29 29 28 26 25 25 25 25 25 25 25 25 24 24 24 26 26 27 27 27 27 27
40 40 39 37 35 34 33 31 30 28 27 26 26 26 25 25 25 26 27 27 28 28 29 27 26 26 25 25 25 25 25 25 25 25 25 24 25 26 27 27 27 27 27
40 40 39 38 37 35 34 32 31 30 28 27 26 26 26 26 25 25 26 27 27 28 27 28 27 26 25 25 25 25 25 26 25 25 25 24 24 25 26 26 26 26 26
41 40 40 39 38 36 35 34 32 31 30 28 27 27 26 26 26 25 26 27 26 27 27 27 27 26 26 25 25 25 25 25 26 25 24 25 24 24 25 25 26 26 26
39 40 40 38 38 37 35 34 33 33 31 30 28 28 27 27 26 26 26 26 27 26 27 26 27 26 26 26 25 25 25 25 25 26 24 24 24 24 24 25 25 25 25
40 39 40 37 36 36 35 35 35 34 33 32 30 29 28 28 27 27 27 26 26 26 26 26 26 26 26 26 25 25 25 25 25 25 26 25 24 24 24 24 24 25 24
39 39 39 38 38 37 36 35 35 35 34 33 32 30 29 28 28 27 27 27 26 26 26 26 26 26 26 26 26 26 26 25 25 25 25 25 25 24 24 24 24 24 24
38 38 38 38 37 38 37 35 35 35 35 33 32 32 30 29 28 28 27 27 27 26 26 26 26 26 26 26 26 26 26 26 25 25 25 25 25 25 24 24 24 23 23
37 37 38 38 38 38 38 37 35 34 34 34 33 32 31 29 29 28 28 27 27 27 26 26 26 26 26 26 27 27 26 26 26 25 25 25 26 25 24 24 23 23 23
36 37 38 38 38 38 38 36 35 34 33 33 32 32 31 30 29 28 27 27 27 27 26 26 26 26 26 26 26 27 26 26 26 26 26 25 25 25 25 23 22 22 22
33 33 34 35 38 38 39 38 35 34 32 32 32 32 31 30 30 29 28 27 27 27 26 26 26 26 26 26 26 26 26 26 26 26 26 26 25 25 25 24 23 22 22
33 33 33 33 34 33 34 34 36 35 34 32 32 31 31 30 30 29 28 27 27 27 27 27 26 26 26 26 26 26 26 26 26 26 26 26 26 26 25 25 23 23 22
32 33 33 33 34 33 33 33 33 34 34 35 32 31 31 29 30 29 28 27 27 27 26 26 26 27 26 26 26 26 26 25 25 26 27 27 26 26 26 25 24 23 23
32 32 32 33 33 33 31 31 31 32 33 33 32 31 30 29 29 28 28 27 27 27 26 27 27 27 27 27 27 26 26 25 25 25 26 27 27 27 26 26 25 23 22
29 29 30 31 29 29 29 30 30 31 31 31 31 30 29 28 28 28 27 27 27 27 27 27 28 28 28 28 28 28 27 26 26 25 25 25 26 26 25 26 25 23 22
25 26 28 29 28 26 26 26 26 27 29 30 29 29 29 29 28 28 28 28 28 28 29 28 28 29 29 25 24 25 25 24 25 25 23 24 23 24 22 21 20 20 21
24 25 26 27 25 24 23 25 25 26 28 29 29 29 29 29 28 28 28 28 28 27 27 26 25 24 22 23 24 25 25 25 25 23 23 23 22 21 22 21 19 19 20

GFSMW_925_temp_033.txt.gz
Temp
31 31 31 30 29 28 27 27 26 26 26 25 25 25 25 26 26 27 26 27 26 26 25 25 24 25 25 25 25 25 25 26 26 26 26 26 27 26 26 25 25 24 23
31 31 31 31 29 28 28 28 27 26 25 25 25 25 25 26 26 27 26 27 26 25 25 25 25 25 24 24 25 25 25 26 26 25 25 22 25 26 26 25 24 24 23
31 30 31 31 29 27 27 28 28 26 26 25 25 25 25 26 26 27 27 26 26 25 25 24 25 25 25 24 24 24 25 26 26 26 25 20 21 24 26 26 26 24 24
32 31 31 31 29 27 27 27 27 27 26 25 25 25 25 25 26 27 27 26 26 26 25 25 25 24 24 25 25 24 25 25 26 25 25 26 25 20 21 25 26 25 25
31 31 31 31 30 28 26 26 27 26 25 25 25 25 25 26 26 27 27 27 26 26 25 25 25 25 24 24 25 24 24 25 25 26 26 26 26 25 22 20 24 25 25
33 30 31 31 31 28 27 26 26 26 26 26 25 26 25 26 26 27 27 27 27 26 26 25 25 25 25 25 25 25 24 25 25 25 26 26 26 25 25 22 23 24 25
31 30 31 31 31 28 27 26 25 25 25 25 26 26 26 26 26 27 27 27 26 26 26 25 25 25 25 25 24 24 24 25 25 25 26 26 26 27 26 25 23 23 25
30 32 31 31 31 30 28 26 25 25 24 24 25 26 25 26 26 27 27 27 27 27 27 26 25 25 25 25 24 24 24 24 25 25 26 26 26 26 27 27 26 21 23
34 33 32 31 31 30 29 27 25 25 24 24 24 25 25 25 26 27 27 27 27 27 27 27 26 26 25 25 25 24 25 24 24 25 25 26 26 26 26 27 27 25 20
33 33 32 32 31 31 29 28 25 25 24 24 24 24 25 25 25 26 27 26 28 28 27 27 27 26 26 25 25 24 24 24 24 24 25 25 26 26 26 27 27 26 26
35 33 33 32 31 31 30 28 27 25 24 24 24 24 24 24 24 25 26 27 27 28 28 28 27 26 25 25 25 25 25 24 24 24 24 24 25 26 26 26 27 26 26
35 34 33 33 31 31 30 29 28 26 25 24 24 24 24 24 24 24 25 27 27 27 28 27 27 26 26 26 25 25 25 25 25 24 24 24 24 25 26 25 26 26 26
35 35 34 33 32 32 31 30 29 27 26 25 25 24 24 24 23 24 25 26 27 27 28 27 26 27 26 25 25 25 25 24 25 25 25 24 24 25 25 26 25 26 26
35 35 35 34 33 32 32 31 30 29 27 26 25 25 24 24 24 24 24 24 25 26 26 27 26 26 26 26 25 25 25 25 25 25 24 25 24 25 25 25 25 25 25
34 35 35 34 33 32 32 31 30 30 29 27 26 26 25 25 25 24 24 24 25 25 26 26 27 26 26 25 25 25 25 24 24 25 25 24 24 25 25 25 25 25 25
31 32 34 34 34 33 32 31 31 31 30 29 27 27 26 26 25 25 25 24 24 24 25 25 25 26 25 25 25 25 24 24 24 24 24 24 24 24 24 25 25 26 25
31 31 31 30 30 33 33 32 32 31 31 30 29 28 27 26 26 25 25 25 25 24 24 25 25 25 25 25 25 25 24 24 24 24 24 23 24 24 24 24 24 24 25
30 30 30 31 35 34 32 33 32 31 31 30 29 29 27 26 26 26 25 25 25 25 25 24 25 25 25 25 25 25 25 24 24 24 24 24 24 24 24 24 23 23 23
27 27 29 30 33 35 36 33 32 31 30 31 30 29 28 27 27 26 26 26 26 25 25 25 25 25 25 25 25 25 25 25 25 24 24 24 24 24 24 24 22 22 22
27 28 31 32 32 32 34 33 32 32 31 31 30 30 30 29 27 27 26 26 26 26 26 26 25 25 25 25 25 25 25 24 24 25 24 24 24 24 24 24 23 22 22
27 31 31 30 32 33 33 31 31 30 33 33 33 32 32 30 29 28 27 26 26 26 26 25 25 25 25 25 25 25 25 24 25 25 25 25 25 24 24 24 24 23 23
27 28 27 28 31 33 33 30 30 32 33 32 31 32 32 31 30 29 27 26 26 26 26 25 25 25 25 25 25 25 25 25 25 25 25 25 25 25 25 25 24 24 23
24 25 25 26 27 27 28 28 28 30 31 32 32 31 31 31 30 29 28 26 26 26 25 25 25 25 26 26 26 26 26 26 25 24 25 25 25 25 25 26 25 25 24
23 23 24 24 25 26 26 26 26 28 29 31 30 30 30 29 29 29 28 27 26 25 25 25 25 26 26 26 26 25 25 25 26 25 25 25 25 25 25 25 25 25 22
21 22 22 23 23 24 24 25 25 26 27 29 29 29 29 28 28 28 27 27 27 27 26 26 26 26 24 23 23 24 24 24 24 24 22 22 22 22 23 23 22 22 23
21 20 21 22 23 24 24 24 24 25 26 27 28 28 28 28 28 28 24 26 25 25 26 25 25 22 21 21 22 23 24 24 23 24 23 22 22 22 22 22 22 21 20

GFSMW_925_temp_036.txt.gz
Temp
27 27 26 26 26 26 26 25 25 25 25 26 26 26 26 26 26 26 25 25 26 26 24 24 24 24 25 25 25 25 25 24 25 25 25 25 24 25 25 24 24 23 23
27 28 27 27 27 26 25 25 25 25 26 26 26 26 26 26 26 26 26 26 26 26 25 24 24 24 24 25 24 25 25 25 25 25 24 20 24 24 24 24 24 23 23
29 28 28 27 27 25 25 24 25 25 25 26 26 25 26 26 26 25 26 26 25 26 25 25 25 24 24 24 24 25 25 25 25 25 25 20 20 22 23 23 24 23 23
30 29 28 28 28 26 25 25 25 25 25 25 25 25 24 24 25 25 26 26 25 25 25 25 25 24 24 24 24 24 25 25 25 25 25 25 25 19 21 23 23 23 23
30 29 29 29 28 26 25 24 24 25 25 25 25 25 24 24 25 25 26 26 25 25 25 25 25 24 24 24 24 24 24 24 25 25 25 25 24 24 21 20 23 23 23
30 31 30 30 28 27 26 25 24 24 24 25 25 25 24 24 25 25 25 26 25 25 25 25 25 24 24 24 24 24 24 24 24 25 25 26 25 24 23 20 21 23 24
30 31 30 30 29 27 26 25 24 23 24 24 24 25 25 25 25 25 26 26 25 25 25 25 25 24 24 24 24 24 24 24 24 25 25 25 26 26 25 24 22 22 24
29 30 30 30 29 27 26 26 25 24 24 24 24 24 25 25 25 25 26 26 26 26 26 25 25 25 25 24 24 24 24 24 24 24 25 25 26 26 25 26 24 20 21
29 31 30 30 30 27 26 26 25 25 24 24 24 23 24 25 25 26 26 26 26 26 27 26 26 25 25 25 24 24 24 24 24 24 25 25 25 26 26 25 26 25 19
30 31 30 30 30 28 27 26 25 25 24 24 24 24 24 25 25 25 26 26 26 26 26 26 26 26 25 25 25 24 24 24 24 24 25 25 26 26 26 25 26 26 25
31 30 31 31 30 29 28 26 25 25 24 24 24 24 24 24 24 25 25 26 26 26 26 27 26 26 25 25 25 25 24 24 24 24 24 24 25 26 26 26 25 25 25
31 31 31 31 30 30 28 27 25 25 24 24 24 23 23 23 23 24 25 25 26 26 26 26 27 26 26 25 25 25 24 24 24 24 24 24 24 25 26 26 25 25 26
32 32 32 31 30 30 29 27 26 25 25 24 24 23 23 23 23 24 23 24 25 26 26 26 26 26 26 26 25 25 25 25 24 24 24 24 24 24 24 25 25 25 25
33 32 31 31 30 30 29 28 27 25 25 24 24 23 23 23 23 24 23 23 24 25 26 26 26 26 26 26 26 26 25 25 25 24 24 24 24 24 24 24 25 25 25
33 33 31 31 30 30 30 28 28 26 25 24 24 23 24 23 23 23 23 24 23 24 25 25 26 26 26 25 25 25 25 25 25 24 24 24 24 24 25 24 25 25 24
33 33 32 31 30 30 30 29 28 27 26 25 24 24 24 23 23 23 23 23 23 23 24 25 25 25 25 25 26 25 25 24 24 24 24 24 24 24 24 24 24 25 24
33 32 32 32 31 31 30 29 29 28 26 25 25 25 24 24 23 24 23 23 23 23 23 23 24 24 24 24 25 25 24 24 23 23 24 24 24 24 24 24 23 24 24
27 27 28 29 31 31 31 30 29 29 28 27 26 25 25 24 24 24 24 23 23 23 23 23 23 23 24 24 24 25 24 23 23 23 23 23 23 23 24 23 22 23 23
24 24 26 28 31 32 31 31 30 29 28 28 28 26 26 25 24 24 24 24 24 24 24 23 23 23 23 24 24 24 24 24 23 23 23 23 23 23 23 23 22 22 23
24 24 28 28 30 30 31 31 30 29 29 28 28 28 27 26 25 25 25 24 24 24 24 24 24 24 23 24 24 24 24 23 23 23 23 23 23 23 23 23 22 22 22
23 24 25 24 28 30 30 29 29 29 30 29 29 28 28 27 26 26 25 25 25 25 25 24 24 24 24 24 24 24 24 23 23 23 24 24 24 24 24 23 23 23 24
22 23 23 23 24 27 29 26 26 28 30 29 29 28 28 27 27 26 26 25 25 25 25 25 24 24 24 24 25 25 24 25 23 23 24 24 24 24 24 24 24 24 23
21 21 22 22 23 24 25 24 24 27 29 29 29 30 29 28 28 27 26 25 25 25 25 24 24 24 24 25 25 25 25 25 24 24 24 24 24 24 24 24 24 24 24
19 20 21 21 21 23 24 24 25 26 26 27 29 29 29 28 28 27 26 25 24 24 24 24 23 24 24 25 25 25 25 24 24 25 25 24 24 24 23 23 23 23 23
18 19 19 20 21 23 24 24 24 24 25 26 27 28 28 27 26 25 25 25 26 26 24 24 24 23 23 24 24 24 24 24 24 23 23 23 23 23 22 22 22 22 21
18 18 19 20 21 23 23 24 24 24 24 24 25 26 26 26 26 24 21 22 24 25 25 25 25 23 23 22 23 23 23 23 23 23 22 21 21 21 21 21 21 21 20

GFSMW_925_temp_042.txt.gz
Temp
24 24 23 23 22 22 22 23 23 24 23 23 22 23 23 24 24 25 25 25 24 24 23 24 24 24 24 24 24 24 24 24 24 24 23 23 23 22 22 22 22 22 22
24 24 24 23 23 22 23 22 23 24 24 24 23 23 24 24 25 25 25 25 24 24 23 23 24 25 24 24 24 24 24 23 23 24 22 20 22 23 22 22 22 22 22
24 24 24 24 24 22 23 23 24 24 24 24 24 23 23 23 24 24 25 25 24 24 24 23 24 24 24 24 24 24 24 24 23 24 24 20 21 20 23 23 23 22 23
25 25 24 24 24 24 23 24 24 24 25 25 24 23 23 23 24 25 25 25 25 25 24 24 23 24 24 24 24 24 24 24 24 23 24 24 24 21 22 23 23 23 23
25 25 25 24 24 24 23 23 24 24 24 25 25 24 23 24 24 25 25 25 25 25 25 24 24 24 24 24 24 24 24 24 24 24 24 23 23 23 21 21 22 23 24
25 25 25 25 25 25 24 23 23 24 24 24 24 24 24 24 24 24 25 25 25 25 25 25 24 24 23 24 24 23 23 24 24 24 24 24 24 23 22 20 21 21 24
26 26 25 25 25 25 24 23 23 23 23 23 24 24 24 24 24 25 25 25 25 25 25 25 24 24 24 24 24 23 23 24 23 24 24 24 24 24 24 23 21 20 23
26 26 26 26 25 25 25 23 23 23 23 23 23 24 24 24 24 25 25 25 25 25 25 25 25 24 24 24 23 23 24 23 23 23 23 24 24 24 24 24 23 21 20
27 27 27 27 26 26 25 24 23 23 23 23 23 23 23 23 24 25 25 25 25 25 25 25 25 25 24 24 24 23 24 23 23 23 24 24 24 24 24 24 24 23 22
27 27 27 27 27 26 25 24 24 23 23 23 23 23 23 24 24 25 25 25 25 25 25 25 25 25 25 24 24 24 24 23 23 23 23 23 24 23 23 23 23 23 23
28 27 28 28 27 27 26 24 24 23 23 22 22 22 23 23 24 24 25 25 25 25 25 25 25 25 25 25 24 24 24 24 24 23 23 23 23 23 23 23 23 23 22
29 28 29 28 28 27 26 25 24 23 23 23 23 23 23 23 23 23 24 25 25 25 25 25 25 25 25 25 24 24 24 24 24 24 23 24 24 23 23 23 23 23 23
28 29 29 28 29 27 26 25 24 23 23 23 22 22 22 22 22 23 24 24 25 25 25 25 25 25 25 25 25 25 25 25 25 24 24 24 24 24 24 24 23 23 23
26 27 28 28 29 28 26 25 24 24 24 23 23 22 22 22 22 23 23 24 25 25 25 25 25 25 25 25 25 25 24 24 25 25 25 25 24 24 24 24 24 23 23
26 26 28 27 27 28 27 25 25 24 24 23 23 23 23 22 23 23 23 24 24 25 25 25 25 25 25 25 25 25 25 25 25 25 25 25 25 25 25 24 24 23 23
27 27 28 28 27 28 27 25 25 24 24 24 23 23 23 22 23 23 23 23 23 24 24 24 24 24 25 25 25 25 25 25 24 24 25 25 25 25 25 25 25 24 23
25 28 28 28 28 28 28 26 25 24 24 24 23 23 22 22 22 22 22 22 22 23 22 23 23 23 24 25 25 25 25 24 24 25 25 24 25 25 25 25 25 25 24
24 28 29 29 29 29 28 27 25 24 24 23 23 23 22 22 22 21 22 22 22 22 22 22 22 23 23 24 25 25 24 24 24 24 24 24 24 23 24 24 24 23 23
20 25 29 29 29 29 28 26 25 24 24 23 23 23 22 22 22 21 21 21 21 21 22 22 22 22 22 23 24 23 23 22 22 22 22 23 22 23 23 22 22 22 22
20 24 27 29 28 28 27 25 25 24 23 24 23 23 22 22 22 22 22 22 22 21 21 21 22 22 23 23 24 23 22 21 21 21 22 22 22 22 23 22 22 21 21
21 21 25 25 26 28 27 25 25 25 24 24 24 24 23 23 23 22 22 22 22 22 21 21 22 22 23 23 23 23 22 21 21 21 21 21 22 23 23 23 22 21 23
20 21 20 20 23 26 26 25 25 25 26 25 24 24 23 23 23 23 23 22 22 22 22 21 22 22 23 23 24 24 23 23 22 22 22 23 23 23 23 22 22 23 22
18 19 20 20 20 24 25 24 23 25 27 26 25 25 24 24 24 23 23 22 22 22 22 22 22 22 22 23 24 24 24 24 23 23 23 23 22 22 22 23 23 22 22
17 17 18 19 19 21 22 23 23 24 26 26 26 26 25 24 24 24 24 23 23 22 23 22 22 22 23 23 24 24 23 23 23 23 23 22 22 22 22 22 22 21 21
16 16 17 18 18 20 21 22 23 24 24 24 25 25 24 24 24 24 23 23 23 23 23 23 23 22 22 23 23 23 23 24 24 23 22 21 21 21 21 21 21 20 20
15 16 17 17 18 19 20 21 22 23 23 23 23 23 23 22 22 22 20 21 22 23 23 23 24 24 24 23 23 23 23 23 23 21 20 20 20 20 20 19 19 19 19

GFSMW_925_temp_045.txt.gz
Temp
25 24 24 24 23 22 22 21 21 21 21 21 22 22 23 22 23 24 25 25 24 24 24 24 24 24 23 24 23 23 22 22 22 24 24 23 23 22 22 22 22 22 22
26 25 24 24 24 23 22 21 21 21 22 21 22 22 23 23 23 24 25 25 25 24 24 23 24 24 23 24 24 24 23 22 22 24 25 26 24 23 23 22 22 22 22
26 26 25 25 24 23 22 22 21 21 22 22 21 22 22 23 23 23 24 25 25 24 24 23 24 24 24 24 24 23 24 24 22 24 25 26 26 25 23 22 23 22 22
27 27 26 25 25 24 23 22 22 21 22 22 22 22 24 24 24 24 24 25 25 25 24 24 24 23 23 24 23 24 24 24 24 23 23 24 23 27 27 24 23 23 23
27 27 26 25 25 24 23 23 22 22 22 22 22 23 23 24 23 23 24 25 25 25 24 24 24 24 23 23 24 24 23 24 24 24 23 23 23 23 26 27 26 24 24
28 27 26 26 25 25 24 23 22 22 22 22 22 23 23 23 23 23 24 24 24 24 24 24 24 24 23 23 23 24 23 23 23 23 23 24 25 26 25 26 25 25 25
28 28 27 26 25 25 24 23 22 22 22 22 22 22 23 23 23 23 24 24 24 24 24 25 24 23 24 24 23 23 23 23 23 23 24 23 24 24 24 25 26 26 25
29 28 28 27 26 25 25 24 23 23 22 22 22 23 23 23 24 23 24 24 24 24 24 25 25 25 24 24 24 22 22 22 22 22 23 23 23 23 23 24 25 27 26
29 29 28 27 26 26 25 24 23 23 22 23 22 22 23 23 23 24 24 23 23 24 23 25 25 25 25 24 24 23 22 23 22 22 22 22 23 23 23 23 23 25 27
30 30 29 28 27 26 26 25 24 23 23 23 22 22 22 23 23 23 23 24 24 25 24 25 25 25 25 24 23 23 22 22 23 23 22 22 23 23 22 23 23 23 24
31 30 30 29 28 27 26 25 25 24 23 23 23 23 22 23 22 22 23 23 25 26 25 25 25 25 25 24 23 23 23 22 22 22 22 22 22 23 23 23 23 23 23
32 31 31 29 29 28 27 26 26 25 24 24 23 23 23 23 22 22 22 22 24 26 25 25 25 25 25 24 23 23 23 23 23 23 22 22 23 22 22 23 22 23 23
32 31 31 30 30 29 28 27 26 26 25 24 23 23 23 23 23 23 23 22 24 26 25 24 24 24 25 24 24 24 23 23 23 23 23 23 23 22 23 23 23 23 22
30 31 30 30 29 29 28 27 27 26 26 25 24 24 23 23 23 23 22 22 24 25 25 24 24 24 24 24 24 23 23 23 23 23 23 23 23 23 23 23 23 23 23
30 30 30 29 29 29 27 27 27 26 26 25 24 24 23 23 23 23 22 22 23 24 25 24 23 23 24 24 23 23 23 23 23 23 23 23 24 24 24 24 24 23 23
29 30 30 30 29 29 27 26 26 26 25 24 24 24 23 23 23 22 22 22 22 23 23 23 23 23 24 25 25 25 24 23 23 23 23 23 24 25 26 25 25 24 23
26 26 29 30 30 29 28 26 26 25 25 24 24 24 23 23 22 22 22 22 22 22 22 22 23 23 23 25 25 25 24 24 24 23 24 24 25 24 23 23 25 25 25
24 25 26 29 29 29 29 27 26 25 24 24 24 24 23 23 22 22 22 22 23 22 22 22 22 23 23 24 25 25 25 23 24 24 24 24 24 24 24 23 24 24 23
22 24 25 28 30 29 29 27 26 25 25 24 24 24 23 23 23 22 22 22 22 22 22 23 22 22 23 24 25 25 22 23 23 23 23 23 23 23 23 22 23 23 23
24 25 26 30 29 29 28 27 26 25 25 25 24 24 23 23 23 23 22 22 22 23 23 23 23 23 23 23 25 24 22 23 23 23 22 22 22 22 22 22 22 23 23
23 25 29 29 28 28 28 26 26 26 26 25 25 24 23 23 23 23 23 23 23 23 22 23 23 22 22 22 23 24 22 23 24 24 24 24 23 23 23 23 22 22 23
21 24 26 28 27 27 27 26 26 26 25 25 24 23 23 24 24 23 23 23 23 23 23 23 23 24 23 22 22 24 23 22 23 24 25 24 23 23 23 23 23 23 23
20 22 24 23 25 26 26 26 25 24 24 24 24 24 23 23 24 23 23 23 23 24 24 24 25 25 25 24 23 23 24 23 22 23 24 23 23 22 22 23 23 22 22
18 20 22 22 22 22 23 23 23 24 24 24 24 24 24 23 24 24 24 24 25 25 25 25 25 26 25 24 24 23 22 22 22 22 22 22 22 22 22 22 22 22 21
17 18 19 21 21 21 21 21 21 23 24 24 24 24 24 23 24 25 25 25 25 26 26 26 26 26 25 25 25 24 23 23 23 23 21 21 21 21 21 21 20 20 20
17 17 18 19 20 20 20 19 19 21 23 25 25 25 26 24 25 21 19 22 23 23 24 24 25 24 24 24 24 23 22 23 23 21 20 20 20 20 19 19 19 19 19

GFSMW_925_temp_048.txt.gz
Temp
29 28 27 27 27 26 25 24 24 24 23 24 24 25 25 25 25 25 24 24 24 24 23 24 24 23 25 25 24 25 24 26 26 26 27 26 26 25 26 26 26 25 25
30 28 27 27 27 26 25 24 24 24 23 24 25 26 26 26 26 26 25 24 24 24 24 24 24 24 24 24 24 24 26 26 26 28 28 28 27 27 27 26 26 25 26
30 29 28 28 27 27 25 25 24 23 23 24 24 24 25 25 25 25 25 25 24 24 24 24 24 23 24 25 24 24 25 27 26 25 27 28 27 28 27 26 26 25 26
31 30 29 28 28 27 26 25 24 23 23 23 25 24 26 26 27 27 27 26 24 24 24 24 24 23 24 24 24 24 25 25 27 26 26 25 26 29 28 27 27 26 26
31 31 30 28 28 27 26 25 24 23 24 23 25 24 25 27 27 27 26 26 24 24 25 24 24 24 24 24 24 24 24 26 27 27 27 26 27 26 28 29 28 27 27
32 32 30 29 28 28 27 26 24 23 23 23 23 24 25 27 27 26 26 26 26 25 24 24 24 24 24 24 24 24 24 25 25 26 26 27 28 29 28 29 28 28 28
33 32 31 30 29 28 27 27 25 24 23 24 23 24 24 25 26 25 26 27 27 27 26 24 24 24 24 24 24 23 23 24 25 24 26 27 27 27 27 28 29 28 28
34 33 32 30 29 28 27 27 26 24 24 24 24 23 24 25 25 25 27 27 27 27 27 25 25 24 24 24 24 24 24 25 24 24 24 27 27 26 27 27 28 29 30
35 33 33 31 30 29 28 27 26 25 25 25 24 24 24 24 26 26 26 26 26 27 26 25 25 25 25 24 24 25 24 25 24 25 24 24 27 26 26 26 27 27 29
35 34 33 32 30 29 28 27 26 25 25 25 25 25 25 24 25 25 25 26 26 25 26 25 25 25 25 24 24 25 25 24 25 25 25 24 26 26 26 26 27 27 27
35 35 34 33 31 30 29 28 27 26 26 26 25 25 25 25 25 25 25 25 25 25 25 25 25 25 25 25 24 25 26 25 25 25 25 24 24 26 27 27 26 27 27
36 36 35 33 32 31 30 29 28 27 26 26 25 25 26 25 26 25 25 25 24 25 25 25 25 25 25 25 25 24 26 25 25 25 25 25 25 24 24 26 26 27 27
37 36 36 35 33 32 31 31 29 29 28 27 26 26 26 26 26 25 25 25 24 24 25 25 25 25 25 25 25 25 25 25 25 25 25 25 25 25 26 26 26 27 26
36 36 36 36 34 33 31 31 31 30 30 28 28 27 26 26 26 25 25 25 24 24 25 25 25 25 25 26 26 25 25 25 26 25 26 26 25 25 25 25 25 25 25
35 35 35 35 34 32 32 30 31 30 31 29 29 28 26 26 26 25 25 25 25 25 25 25 25 25 25 26 26 26 26 25 25 26 26 25 25 25 25 26 26 26 26
34 34 34 34 34 32 31 30 30 30 30 30 29 28 26 26 25 25 25 24 25 25 25 25 25 25 26 27 26 26 26 26 26 26 26 26 25 24 24 24 25 25 25
31 32 33 34 34 32 31 30 29 29 29 29 28 28 26 25 25 25 25 24 24 25 25 25 25 25 25 26 26 26 26 26 26 26 26 26 27 26 26 25 24 24 24
28 29 31 32 32 33 32 31 30 29 28 28 27 27 26 25 25 25 25 24 25 25 25 25 25 25 25 25 25 25 25 25 25 26 26 26 26 26 27 26 26 26 26
25 26 27 29 30 31 33 31 30 28 28 27 27 26 26 25 25 25 25 25 25 25 25 25 25 24 25 26 25 25 24 25 25 25 25 25 25 25 25 25 25 25 25
24 24 26 28 29 29 32 32 30 29 28 27 27 26 26 25 25 25 25 25 25 25 26 26 25 25 25 25 24 24 25 26 26 26 25 25 24 25 24 24 24 25 25
21 24 27 28 29 29 32 32 30 29 28 27 27 26 26 25 25 25 25 25 25 26 25 26 26 25 25 25 24 24 23 26 27 27 28 28 27 25 24 23 23 24 24
22 28 30 30 31 31 31 31 29 29 28 27 27 26 26 26 26 25 25 25 25 25 25 25 26 26 25 25 24 24 23 24 26 27 29 28 27 26 25 24 23 23 22
19 24 29 30 30 30 30 29 28 27 27 27 27 26 26 26 27 25 25 25 25 27 26 27 27 28 28 26 25 24 23 23 23 25 27 26 26 24 24 23 23 22 21
17 19 22 24 27 28 28 28 27 27 27 27 27 26 26 26 26 26 26 27 27 27 29 29 29 29 29 29 28 25 23 23 22 22 23 24 24 24 23 23 22 22 22
15 16 18 21 21 22 22 23 26 26 26 27 27 27 27 25 26 27 26 28 28 29 29 30 30 30 30 30 29 28 27 25 23 23 24 24 23 23 22 21 21 21 21
15 16 16 18 20 20 21 22 23 24 26 26 27 28 28 27 27 27 24 23 21 24 27 27 29 28 28 27 27 26 26 25 24 21 22 22 22 21 21 20 20 20 20